Location: Unspecified
(38.6830°S, 0.0000°E)
Time: 17:16:30
(UTC+00:00)

Envisat - Pass Details

Date: 02 June 2019
Orbit: 764 x 766 km, 98.1° (Epoch: 24 June)

Event Time Altitude Azimuth Distance (km) Brightness Sun altitude
Rises 04:55:18 0° 67° (ENE) 3,236 7.5 -25.5°
Reaches altitude 10° 04:58:57 10° 94° (E) 2,321 6.5 -24.8°
Maximum altitude 05:01:04 13° 119° (ESE) 2,145 5.9 -24.4°
Drops below altitude 10° 05:03:13 10° 144° (SE) 2,332 5.8 -24.0°
Sets 05:06:54 0° 171° (S) 3,270 6.3 -23.3°
